Creek Data

    Home     View Charts     View Raw Data     Messages

ID Distance Battery Voltage Battery Current Internal Temp Internal Humidity External Temp Solar Input rssi snr Time Stamp Record
32942 13.9 3.88 0 66 40 62 5.1 -73 7 02/20/2025 04:45 PM 14620
32941 13.9 3.96 0 69 39 64 5.1 -73 8 02/20/2025 04:30 PM 14619
32940 13.9 3.78 0 70 38 64 5.1 -73 8 02/20/2025 04:15 PM 14618
32939 13.9 3.78 0 72 37 64 5.1 -74 7 02/20/2025 04:00 PM 14617
32938 13.9 3.78 0 73 36 65 5.1 -74 8 02/20/2025 03:45 PM 14616
32937 13.9 3.78 0 72 36 64 5.1 -75 8 02/20/2025 03:30 PM 14615
32936 13.9 3.78 0 72 36 64 5.1 -73 6 02/20/2025 03:15 PM 14614
32935 13.9 3.78 0 71 36 64 5.1 -73 7 02/20/2025 03:00 PM 14613
32934 14.0 3.78 0 71 36 64 5.1 -73 7 02/20/2025 02:45 PM 14612
32933 13.9 4.05 0 71 36 63 5.1 -73 8 02/20/2025 02:30 PM 14611
32932 13.9 3.78 0 70 36 62 5.1 -74 7 02/20/2025 02:15 PM 14610
32931 13.9 3.78 0 70 35 62 5.1 -75 8 02/20/2025 02:00 PM 14609
32930 13.9 3.78 0 70 35 62 5.1 -74 7 02/20/2025 01:45 PM 14608
32929 14.0 3.78 0 69 35 62 5.1 -72 8 02/20/2025 01:30 PM 14607
32928 13.9 3.78 0 67 35 61 5.1 -75 8 02/20/2025 01:15 PM 14606
32927 14.0 3.78 0 66 36 61 5.1 -73 8 02/20/2025 01:00 PM 14605
32926 14.0 3.78 0 65 36 60 5.1 -76 8 02/20/2025 12:45 PM 14604
32925 13.9 3.78 0 64 36 59 5.1 -74 7 02/20/2025 12:30 PM 14603
32924 14.0 3.78 0 63 36 58 5.1 -73 8 02/20/2025 12:15 PM 14602
32923 14.0 3.78 0 63 36 58 5.1 -74 8 02/20/2025 12:00 PM 14601
32922 14.1 3.78 0 63 35 58 5.1 -74 8 02/20/2025 11:45 AM 14600
32921 14.0 3.78 0 62 36 57 5.1 -74 8 02/20/2025 11:30 AM 14599
32920 14.0 3.78 0 61 36 57 5.1 -74 8 02/20/2025 11:15 AM 14598
32919 14.0 4.05 0 60 36 57 5.1 -74 8 02/20/2025 11:00 AM 14597
32918 14.0 4.07 0 59 36 57 5.1 -75 8 02/20/2025 10:45 AM 14596